STARLINK-36855, 68121

Orbit data source: Space-Track

STARLINK-36855, 68121 is a payload satellite owned by SpaceX/Seattle (US) in SSO that was launched on Sun, 08 Mar 2026 UTC via an FALCON 9 launch vehicle from the Air Force Western Test Range (AFWTR). Payload-class satellites include a variety of spacecraft equipped with specific instruments for various scientific and technological missions. These include communications satellites like Starlink; space stations such as the ISS; scientific satellites like the Hubble; Earth observation satellites from companies like Planet Labs, Umbra, and HawkEye 360; GPS; miniature CubeSats for education and research; and military/defense satellites.

Loading next visibility...
Identifier
68121, 2026-044W
Orbit
SSO
Country
Flag of USUS
Related business
Manufacturer
SpaceX/Seattle
Mission
Operational spacecraft
Bus & Motor
STARLINK V2MO, Unknown motor
Mass
575 kg wet, ~530 kg dry
Launch date (UTC)
2026-03-08 (3 months ago)
Launch vehicle
FALCON 9
Launch site
Air Force Western Test Range (AFWTR)
Object type
Payload
Rocket body
Debris
Shape & HBR
Unknown shape, 17.7 m
Radar Cross Section
Large (>1 m²)

Expand to show TLE details & history
Last TLE update: 5 days ago

TLE from 5 days ago
0 STARLINK-36855
1 68121U 26044W   26155.19419837  .00041653  00000-0  12850-2 0  9992
2 68121  97.2848 115.7382 0001824 113.2147 246.9288 15.33455974 14841
Epoch: 2026-06-04T04:39Z
TLE epoch observation values (Epoch: 2026-06-04T04:39:38.739Z)
Latitude
-0°
Longitude
153.18482°
Altitude
469.112 km
Speed
7.631 km/s
True Right ascension
07h 42m 57s
True Declination
0° 00' 00"
Sunlit
Object was in daylight at epoch
Visualization orbit readout
Latitude
Unknown
Longitude
Unknown
Altitude
Unknown
Speed
Unknown
Apparent Right ascension
Unknown
Apparent Declination
Unknown
Sunlit
N/A
Visualization observer readout
Local Sidereal Time
19:40:47
Azimuth
Unknown
Elevation
Unknown
Doppler factor
Unknown
Orbital elements
Apogee altitude
463.701 km
Perigee altitude
461.206 km
Semi-major axis
6,840.59 km
Eccentricity
0.00018
Inclination
97.2848°
RAAN
115.7382°
Arg. of periapsis
113.2147°
True anomaly
246.90957°
Mean anomaly
246.9288°
Eccentric anomaly
246.91919°
Mean motion
3.83621 °/min
Orbital period
93.84 mins
BSTAR
0.001285
Loading maneuver chart data...
Computing Atmospheric mass density...
Loading historical data...
Loading historical data...
Loading historical data...
Loading historical data...
Loading historical data...
Loading historical data...
Loading historical data...

Documentation

Showing up to 5 results
|